owner,sensor,date,latitude,longitude,vertical_datum,wind_speed,wind_to_direction,wind_speed_of_gust,qcFlag 
WAVCIS,ioos:station:WAVCIS:CSI03:3,2008-06-01T00:00:00Z,29.4412,-92.0613,10.0,3.51,183.0,,'11111222,11111222,99999999' 
WAVCIS,ioos:station:WAVCIS:CSI03:3,2008-06-01T01:00:00Z,29.4412,-92.0613,10.0,2.92,185.0,,'11111222,11111222,99999999' 
WAVCIS,ioos:station:WAVCIS:CSI03:3,2008-06-01T02:00:00Z,29.4412,-92.0613,10.0,2.96,182.0,,'11111222,11111222,99999999' 
WAVCIS,ioos:station:WAVCIS:CSI03:3,2008-06-01T03:00:00Z,29.4412,-92.0613,10.0,3.226,180.0,,'11111222,11111222,99999999' 
WAVCIS,ioos:station:WAVCIS:CSI03:3,2008-06-01T04:00:00Z,29.4412,-92.0613,10.0,3.606,184.0,,'11111222,11111222,99999999' 
WAVCIS,ioos:station:WAVCIS:CSI03:3,2008-06-01T05:00:00Z,29.4412,-92.0613,10.0,2.716,197.0,,'11111222,11111222,99999999' 
WAVCIS,ioos:station:WAVCIS:CSI03:3,2008-06-01T06:00:00Z,29.4412,-92.0613,10.0,2.645,191.0,,'11111222,11111222,99999999' 
WAVCIS,ioos:station:WAVCIS:CSI03:3,2008-06-01T07:00:00Z,29.4412,-92.0613,10.0,2.916,193.0,,'11111222,11111222,99999999' 
WAVCIS,ioos:station:WAVCIS:CSI03:3,2008-06-01T08:00:00Z,29.4412,-92.0613,10.0,2.564,195.0,,'11111222,11111222,99999999' 
WAVCIS,ioos:station:WAVCIS:CSI03:3,2008-06-01T09:00:00Z,29.4412,-92.0613,10.0,2.252,201.0,,'11111222,11111222,99999999' 
WAVCIS,ioos:station:WAVCIS:CSI03:3,2008-06-01T10:00:00Z,29.4412,-92.0613,10.0,2.533,192.0,,'11111222,11111222,99999999' 
WAVCIS,ioos:station:WAVCIS:CSI03:3,2008-06-01T11:00:00Z,29.4412,-92.0613,10.0,2.262,199.0,,'11111222,11111222,99999999' 
WAVCIS,ioos:station:WAVCIS:CSI03:3,2008-06-01T12:00:00Z,29.4412,-92.0613,10.0,3.444,181.0,,'11111222,11111222,99999999' 
WAVCIS,ioos:station:WAVCIS:CSI03:3,2008-06-01T13:00:00Z,29.4412,-92.0613,10.0,1.382,192.0,,'11111222,11111222,99999999' 
WAVCIS,ioos:station:WAVCIS:CSI03:3,2008-06-01T14:00:00Z,29.4412,-92.0613,10.0,1.424,199.0,,'11111222,11111222,99999999' 
WAVCIS,ioos:station:WAVCIS:CSI03:3,2008-06-01T15:00:00Z,29.4412,-92.0613,10.0,1.677,184.0,,'11111222,11111222,99999999' 
WAVCIS,ioos:station:WAVCIS:CSI03:3,2008-06-01T16:00:00Z,29.4412,-92.0613,10.0,1.178,173.0,,'11111222,11111222,99999999' 
WAVCIS,ioos:station:WAVCIS:CSI03:3,2008-06-01T17:00:00Z,29.4412,-92.0613,10.0,2.191,125.0,,'11111222,11111222,99999999' 
WAVCIS,ioos:station:WAVCIS:CSI03:3,2008-06-01T18:00:00Z,29.4412,-92.0613,10.0,2.475,177.0,,'11111222,11111222,99999999' 
WAVCIS,ioos:station:WAVCIS:CSI03:3,2008-06-01T19:00:00Z,29.4412,-92.0613,10.0,2.755,167.0,,'11111222,11111222,99999999' 
WAVCIS,ioos:station:WAVCIS:CSI03:3,2008-06-01T20:00:00Z,29.4412,-92.0613,10.0,1.246,157.0,,'11111222,11111222,99999999' 
WAVCIS,ioos:station:WAVCIS:CSI03:3,2008-06-01T21:00:00Z,29.4412,-92.0613,10.0,2.272,185.0,,'11111222,11111222,99999999' 
WAVCIS,ioos:station:WAVCIS:CSI03:3,2008-06-01T22:00:00Z,29.4412,-92.0613,10.0,0.972,203.0,,'11111222,11111222,99999999' 
WAVCIS,ioos:station:WAVCIS:CSI03:3,2008-06-01T23:00:00Z,29.4412,-92.0613,10.0,1.751,202.0,,'11111222,11111222,99999999' 
WAVCIS,ioos:station:WAVCIS:CSI03:3,2008-06-02T00:00:00Z,29.4412,-92.0613,10.0,3.411,185.0,,'11111222,11111222,99999999' 
WAVCIS,ioos:station:WAVCIS:CSI03:3,2008-06-02T01:00:00Z,29.4412,-92.0613,10.0,2.786,197.0,,'11111222,11111222,99999999' 
WAVCIS,ioos:station:WAVCIS:CSI03:3,2008-06-02T02:00:00Z,29.4412,-92.0613,10.0,2.356,188.0,,'11111222,11111222,99999999' 
WAVCIS,ioos:station:WAVCIS:CSI03:3,2008-06-02T03:00:00Z,29.4412,-92.0613,10.0,2.507,186.0,,'11111222,11111222,99999999' 
WAVCIS,ioos:station:WAVCIS:CSI03:3,2008-06-02T04:00:00Z,29.4412,-92.0613,10.0,2.935,183.0,,'11111222,11111222,99999999' 
WAVCIS,ioos:station:WAVCIS:CSI03:3,2008-06-02T05:00:00Z,29.4412,-92.0613,10.0,3.147,185.0,,'11111222,11111222,99999999' 
WAVCIS,ioos:station:WAVCIS:CSI03:3,2008-06-02T06:00:00Z,29.4412,-92.0613,10.0,3.683,202.0,,'11111222,11111222,99999999' 
WAVCIS,ioos:station:WAVCIS:CSI03:3,2008-06-02T07:00:00Z,29.4412,-92.0613,10.0,3.888,204.0,,'11111222,11111222,99999999' 
WAVCIS,ioos:station:WAVCIS:CSI03:3,2008-06-02T08:00:00Z,29.4412,-92.0613,10.0,2.604,212.0,,'11111222,11111222,99999999' 
WAVCIS,ioos:station:WAVCIS:CSI03:3,2008-06-02T09:00:00Z,29.4412,-92.0613,10.0,3.279,208.0,,'11111222,11111222,99999999' 
WAVCIS,ioos:station:WAVCIS:CSI03:3,2008-06-02T10:00:00Z,29.4412,-92.0613,10.0,2.206,219.0,,'11111222,11111222,99999999' 
WAVCIS,ioos:station:WAVCIS:CSI03:3,2008-06-02T11:00:00Z,29.4412,-92.0613,10.0,1.963,216.0,,'11111222,11111222,99999999' 
WAVCIS,ioos:station:WAVCIS:CSI03:3,2008-06-02T12:00:00Z,29.4412,-92.0613,10.0,2.145,226.0,,'11111222,11111222,99999999' 
WAVCIS,ioos:station:WAVCIS:CSI03:3,2008-06-02T13:00:00Z,29.4412,-92.0613,10.0,1.141,211.0,,'11111222,11111222,99999999' 
WAVCIS,ioos:station:WAVCIS:CSI03:3,2008-06-02T14:00:00Z,29.4412,-92.0613,10.0,1.289,209.0,,'11111222,11111222,99999999' 
WAVCIS,ioos:station:WAVCIS:CSI03:3,2008-06-02T15:00:00Z,29.4412,-92.0613,10.0,0.929,237.0,,'11111222,11111222,99999999' 
WAVCIS,ioos:station:WAVCIS:CSI03:3,2008-06-02T16:00:00Z,29.4412,-92.0613,10.0,2.478,180.0,,'11111222,11111222,99999999' 
WAVCIS,ioos:station:WAVCIS:CSI03:3,2008-06-02T17:00:00Z,29.4412,-92.0613,10.0,1.736,198.0,,'11111222,11111222,99999999' 
WAVCIS,ioos:station:WAVCIS:CSI03:3,2008-06-02T18:00:00Z,29.4412,-92.0613,10.0,1.875,187.0,,'11111222,11111222,99999999' 
WAVCIS,ioos:station:WAVCIS:CSI03:3,2008-06-02T19:00:00Z,29.4412,-92.0613,10.0,1.709,187.0,,'11111222,11111222,99999999' 
WAVCIS,ioos:station:WAVCIS:CSI03:3,2008-06-02T20:00:00Z,29.4412,-92.0613,10.0,1.471,207.0,,'11111222,11111222,99999999' 
WAVCIS,ioos:station:WAVCIS:CSI03:3,2008-06-02T21:00:00Z,29.4412,-92.0613,10.0,1.479,208.0,,'11111222,11111222,99999999' 
WAVCIS,ioos:station:WAVCIS:CSI03:3,2008-06-02T22:00:00Z,29.4412,-92.0613,10.0,1.868,195.0,,'11111222,11111222,99999999' 
WAVCIS,ioos:station:WAVCIS:CSI03:3,2008-06-02T23:00:00Z,29.4412,-92.0613,10.0,1.898,211.0,,'11111222,11111222,99999999' 
WAVCIS,ioos:station:WAVCIS:CSI03:3,2008-06-03T00:00:00Z,29.4412,-92.0613,10.0,1.763,206.0,,'11111222,11111222,99999999' 
WAVCIS,ioos:station:WAVCIS:CSI03:3,2008-06-03T01:00:00Z,29.4412,-92.0613,10.0,2.726,207.0,,'11111222,11111222,99999999' 
WAVCIS,ioos:station:WAVCIS:CSI03:3,2008-06-03T02:00:00Z,29.4412,-92.0613,10.0,3.328,203.0,,'11111222,11111222,99999999' 
WAVCIS,ioos:station:WAVCIS:CSI03:3,2008-06-03T03:00:00Z,29.4412,-92.0613,10.0,3.407,198.0,,'11111222,11111222,99999999' 
WAVCIS,ioos:station:WAVCIS:CSI03:3,2008-06-03T04:00:00Z,29.4412,-92.0613,10.0,3.501,193.0,,'11111222,11111222,99999999' 
WAVCIS,ioos:station:WAVCIS:CSI03:3,2008-06-03T05:00:00Z,29.4412,-92.0613,10.0,4.274,196.0,,'11111222,11111222,99999999' 
WAVCIS,ioos:station:WAVCIS:CSI03:3,2008-06-03T06:00:00Z,29.4412,-92.0613,10.0,4.215,197.0,,'11111222,11111222,99999999' 
WAVCIS,ioos:station:WAVCIS:CSI03:3,2008-06-03T07:00:00Z,29.4412,-92.0613,10.0,4.114,197.0,,'11111222,11111222,99999999' 
WAVCIS,ioos:station:WAVCIS:CSI03:3,2008-06-03T08:00:00Z,29.4412,-92.0613,10.0,4.5,197.0,,'11111222,11111222,99999999' 
WAVCIS,ioos:station:WAVCIS:CSI03:3,2008-06-03T09:00:00Z,29.4412,-92.0613,10.0,5.029,199.0,,'11111222,11111222,99999999' 
WAVCIS,ioos:station:WAVCIS:CSI03:3,2008-06-03T10:00:00Z,29.4412,-92.0613,10.0,2.055,199.0,,'11111222,11111222,99999999' 
WAVCIS,ioos:station:WAVCIS:CSI03:3,2008-06-03T11:00:00Z,29.4412,-92.0613,10.0,2.43,199.0,,'11111222,11111222,99999999' 
WAVCIS,ioos:station:WAVCIS:CSI03:3,2008-06-03T12:00:00Z,29.4412,-92.0613,10.0,1.417,215.0,,'11111222,11111222,99999999' 
WAVCIS,ioos:station:WAVCIS:CSI03:3,2008-06-03T13:00:00Z,29.4412,-92.0613,10.0,2.361,228.0,,'11111222,11111222,99999999' 
WAVCIS,ioos:station:WAVCIS:CSI03:3,2008-06-03T14:00:00Z,29.4412,-92.0613,10.0,1.796,224.0,,'11111222,11111222,99999999' 
WAVCIS,ioos:station:WAVCIS:CSI03:3,2008-06-03T15:00:00Z,29.4412,-92.0613,10.0,1.087,204.0,,'11111222,11111222,99999999' 
WAVCIS,ioos:station:WAVCIS:CSI03:3,2008-06-03T16:00:00Z,29.4412,-92.0613,10.0,2.088,193.0,,'11111222,11111222,99999999' 
WAVCIS,ioos:station:WAVCIS:CSI03:3,2008-06-03T17:00:00Z,29.4412,-92.0613,10.0,2.525,187.0,,'11111222,11111222,99999999' 
WAVCIS,ioos:station:WAVCIS:CSI03:3,2008-06-03T18:00:00Z,29.4412,-92.0613,10.0,2.098,190.0,,'11111222,11111222,99999999' 
WAVCIS,ioos:station:WAVCIS:CSI03:3,2008-06-03T19:00:00Z,29.4412,-92.0613,10.0,2.364,192.0,,'11111222,11111222,99999999' 
WAVCIS,ioos:station:WAVCIS:CSI03:3,2008-06-03T20:00:00Z,29.4412,-92.0613,10.0,3.036,193.0,,'11111222,11111222,99999999' 
WAVCIS,ioos:station:WAVCIS:CSI03:3,2008-06-03T21:00:00Z,29.4412,-92.0613,10.0,2.991,193.0,,'11111222,11111222,99999999' 
WAVCIS,ioos:station:WAVCIS:CSI03:3,2008-06-03T22:00:00Z,29.4412,-92.0613,10.0,3.542,196.0,,'11111222,11111222,99999999' 
WAVCIS,ioos:station:WAVCIS:CSI03:3,2008-06-03T23:00:00Z,29.4412,-92.0613,10.0,3.195,189.0,,'11111222,11111222,99999999' 
WAVCIS,ioos:station:WAVCIS:CSI03:3,2008-06-04T00:00:00Z,29.4412,-92.0613,10.0,4.178,182.0,,'11111222,11111222,99999999' 
WAVCIS,ioos:station:WAVCIS:CSI03:3,2008-06-04T01:00:00Z,29.4412,-92.0613,10.0,3.779,191.0,,'11111222,11111222,99999999' 
WAVCIS,ioos:station:WAVCIS:CSI03:3,2008-06-04T02:00:00Z,29.4412,-92.0613,10.0,3.562,196.0,,'11111222,11111222,99999999' 
WAVCIS,ioos:station:WAVCIS:CSI03:3,2008-06-04T03:00:00Z,29.4412,-92.0613,10.0,4.103,195.0,,'11111222,11111222,99999999' 
WAVCIS,ioos:station:WAVCIS:CSI03:3,2008-06-04T04:00:00Z,29.4412,-92.0613,10.0,6.199,183.0,,'11111222,11111222,99999999' 
WAVCIS,ioos:station:WAVCIS:CSI03:3,2008-06-04T05:00:00Z,29.4412,-92.0613,10.0,5.502,186.0,,'11111222,11111222,99999999' 
WAVCIS,ioos:station:WAVCIS:CSI03:3,2008-06-04T06:00:00Z,29.4412,-92.0613,10.0,4.287,191.0,,'11111222,11111222,99999999' 
WAVCIS,ioos:station:WAVCIS:CSI03:3,2008-06-04T07:00:00Z,29.4412,-92.0613,10.0,5.426,192.0,,'11111222,11111222,99999999' 
WAVCIS,ioos:station:WAVCIS:CSI03:3,2008-06-04T08:00:00Z,29.4412,-92.0613,10.0,6.78,205.0,,'11111222,11111222,99999999' 
WAVCIS,ioos:station:WAVCIS:CSI03:3,2008-06-04T09:00:00Z,29.4412,-92.0613,10.0,6.302,203.0,,'11111222,11111222,99999999' 
WAVCIS,ioos:station:WAVCIS:CSI03:3,2008-06-04T10:00:00Z,29.4412,-92.0613,10.0,6.822,202.0,,'11111222,11111222,99999999' 
WAVCIS,ioos:station:WAVCIS:CSI03:3,2008-06-04T11:00:00Z,29.4412,-92.0613,10.0,6.049,202.0,,'11111222,11111222,99999999' 
WAVCIS,ioos:station:WAVCIS:CSI03:3,2008-06-04T12:00:00Z,29.4412,-92.0613,10.0,5.64,201.0,,'11111222,11111222,99999999' 
WAVCIS,ioos:station:WAVCIS:CSI03:3,2008-06-04T13:00:00Z,29.4412,-92.0613,10.0,6.096,203.0,,'11111222,11111222,99999999' 
WAVCIS,ioos:station:WAVCIS:CSI03:3,2008-06-04T14:00:00Z,29.4412,-92.0613,10.0,5.756,200.0,,'11111222,11111222,99999999' 
WAVCIS,ioos:station:WAVCIS:CSI03:3,2008-06-04T15:00:00Z,29.4412,-92.0613,10.0,4.148,199.0,,'11111222,11111222,99999999' 
WAVCIS,ioos:station:WAVCIS:CSI03:3,2008-06-04T16:00:00Z,29.4412,-92.0613,10.0,4.866,188.0,,'11111222,11111222,99999999' 
WAVCIS,ioos:station:WAVCIS:CSI03:3,2008-06-04T17:00:00Z,29.4412,-92.0613,10.0,5.336,194.0,,'11111222,11111222,99999999' 
WAVCIS,ioos:station:WAVCIS:CSI03:3,2008-06-04T18:00:00Z,29.4412,-92.0613,10.0,6.569,182.0,,'11111222,11111222,99999999' 
WAVCIS,ioos:station:WAVCIS:CSI03:3,2008-06-04T19:00:00Z,29.4412,-92.0613,10.0,5.977,185.0,,'11111222,11111222,99999999' 
WAVCIS,ioos:station:WAVCIS:CSI03:3,2008-06-04T20:00:00Z,29.4412,-92.0613,10.0,6.813,183.0,,'11111222,11111222,99999999' 
WAVCIS,ioos:station:WAVCIS:CSI03:3,2008-06-04T21:00:00Z,29.4412,-92.0613,10.0,5.817,184.0,,'11111222,11111222,99999999' 
WAVCIS,ioos:station:WAVCIS:CSI03:3,2008-06-04T22:00:00Z,29.4412,-92.0613,10.0,7.49,181.0,,'11111222,11111222,99999999' 
WAVCIS,ioos:station:WAVCIS:CSI03:3,2008-06-04T23:00:00Z,29.4412,-92.0613,10.0,7.07,176.0,,'11111222,11111222,99999999' 
WAVCIS,ioos:station:WAVCIS:CSI03:3,2008-06-05T00:00:00Z,29.4412,-92.0613,10.0,7.43,177.0,,'11111222,11111222,99999999' 
WAVCIS,ioos:station:WAVCIS:CSI03:3,2008-06-05T01:00:00Z,29.4412,-92.0613,10.0,6.568,178.0,,'11111222,11111222,99999999' 
WAVCIS,ioos:station:WAVCIS:CSI03:3,2008-06-05T02:00:00Z,29.4412,-92.0613,10.0,8.73,172.0,,'11111222,11111222,99999999' 
WAVCIS,ioos:station:WAVCIS:CSI03:3,2008-06-05T03:00:00Z,29.4412,-92.0613,10.0,7.75,178.0,,'11111222,11111222,99999999' 
WAVCIS,ioos:station:WAVCIS:CSI03:3,2008-06-05T04:00:00Z,29.4412,-92.0613,10.0,8.98,181.0,,'11111222,11111222,99999999' 
WAVCIS,ioos:station:WAVCIS:CSI03:3,2008-06-05T05:00:00Z,29.4412,-92.0613,10.0,9.17,178.0,,'11111222,11111222,99999999' 
WAVCIS,ioos:station:WAVCIS:CSI03:3,2008-06-05T06:00:00Z,29.4412,-92.0613,10.0,9.42,176.0,,'11111222,11111222,99999999' 
WAVCIS,ioos:station:WAVCIS:CSI03:3,2008-06-05T07:00:00Z,29.4412,-92.0613,10.0,10.32,180.0,,'11111222,11111222,99999999' 
WAVCIS,ioos:station:WAVCIS:CSI03:3,2008-06-05T08:00:00Z,29.4412,-92.0613,10.0,11.6,172.0,,'11111222,11111222,99999999' 
WAVCIS,ioos:station:WAVCIS:CSI03:3,2008-06-05T09:00:00Z,29.4412,-92.0613,10.0,9.75,177.0,,'11111222,11111222,99999999' 
WAVCIS,ioos:station:WAVCIS:CSI03:3,2008-06-05T10:00:00Z,29.4412,-92.0613,10.0,10.09,177.0,,'11111222,11111222,99999999' 
WAVCIS,ioos:station:WAVCIS:CSI03:3,2008-06-05T11:00:00Z,29.4412,-92.0613,10.0,9.02,181.0,,'11111222,11111222,99999999' 
WAVCIS,ioos:station:WAVCIS:CSI03:3,2008-06-05T12:00:00Z,29.4412,-92.0613,10.0,11.22,174.0,,'11111222,11111222,99999999' 
WAVCIS,ioos:station:WAVCIS:CSI03:3,2008-06-05T13:00:00Z,29.4412,-92.0613,10.0,11.62,170.0,,'11111222,11111222,99999999' 
WAVCIS,ioos:station:WAVCIS:CSI03:3,2008-06-05T14:00:00Z,29.4412,-92.0613,10.0,11.53,170.0,,'11111222,11111222,99999999' 
WAVCIS,ioos:station:WAVCIS:CSI03:3,2008-06-05T15:00:00Z,29.4412,-92.0613,10.0,10.31,170.0,,'11111222,11111222,99999999' 
WAVCIS,ioos:station:WAVCIS:CSI03:3,2008-06-05T16:00:00Z,29.4412,-92.0613,10.0,9.35,171.0,,'11111222,11111222,99999999' 
WAVCIS,ioos:station:WAVCIS:CSI03:3,2008-06-05T17:00:00Z,29.4412,-92.0613,10.0,10.8,166.0,,'11111222,11111222,99999999' 
WAVCIS,ioos:station:WAVCIS:CSI03:3,2008-06-05T18:00:00Z,29.4412,-92.0613,10.0,10.34,166.0,,'11111222,11111222,99999999' 
WAVCIS,ioos:station:WAVCIS:CSI03:3,2008-06-05T19:00:00Z,29.4412,-92.0613,10.0,10.17,166.0,,'11111222,11111222,99999999' 
WAVCIS,ioos:station:WAVCIS:CSI03:3,2008-06-05T20:00:00Z,29.4412,-92.0613,10.0,9.99,165.0,,'11111222,11111222,99999999' 
WAVCIS,ioos:station:WAVCIS:CSI03:3,2008-06-05T21:00:00Z,29.4412,-92.0613,10.0,9.97,166.0,,'11111222,11111222,99999999' 
WAVCIS,ioos:station:WAVCIS:CSI03:3,2008-06-05T22:00:00Z,29.4412,-92.0613,10.0,10.61,164.0,,'11111222,11111222,99999999' 
WAVCIS,ioos:station:WAVCIS:CSI03:3,2008-06-05T23:00:00Z,29.4412,-92.0613,10.0,11.0,159.0,,'11111222,11111222,99999999' 
WAVCIS,ioos:station:WAVCIS:CSI03:3,2008-06-06T00:00:00Z,29.4412,-92.0613,10.0,11.3,161.0,,'11111222,11111222,99999999' 
WAVCIS,ioos:station:WAVCIS:CSI03:3,2008-06-06T01:00:00Z,29.4412,-92.0613,10.0,11.16,160.0,,'11111222,11111222,99999999' 
WAVCIS,ioos:station:WAVCIS:CSI03:3,2008-06-06T02:00:00Z,29.4412,-92.0613,10.0,11.5,160.0,,'11111222,11111222,99999999' 
WAVCIS,ioos:station:WAVCIS:CSI03:3,2008-06-06T03:00:00Z,29.4412,-92.0613,10.0,11.44,166.0,,'11111222,11111222,99999999' 
WAVCIS,ioos:station:WAVCIS:CSI03:3,2008-06-06T04:00:00Z,29.4412,-92.0613,10.0,11.42,166.0,,'11111222,11111222,99999999' 
WAVCIS,ioos:station:WAVCIS:CSI03:3,2008-06-06T05:00:00Z,29.4412,-92.0613,10.0,11.48,164.0,,'11111222,11111222,99999999' 
WAVCIS,ioos:station:WAVCIS:CSI03:3,2008-06-06T06:00:00Z,29.4412,-92.0613,10.0,11.07,170.0,,'11111222,11111222,99999999' 
WAVCIS,ioos:station:WAVCIS:CSI03:3,2008-06-06T07:00:00Z,29.4412,-92.0613,10.0,10.94,170.0,,'11111222,11111222,99999999' 
WAVCIS,ioos:station:WAVCIS:CSI03:3,2008-06-06T08:00:00Z,29.4412,-92.0613,10.0,12.4,169.0,,'11111222,11111222,99999999' 
WAVCIS,ioos:station:WAVCIS:CSI03:3,2008-06-06T09:00:00Z,29.4412,-92.0613,10.0,11.27,166.0,,'11111222,11111222,99999999' 
WAVCIS,ioos:station:WAVCIS:CSI03:3,2008-06-06T10:00:00Z,29.4412,-92.0613,10.0,10.13,164.0,,'11111222,11111222,99999999' 
WAVCIS,ioos:station:WAVCIS:CSI03:3,2008-06-06T11:00:00Z,29.4412,-92.0613,10.0,10.18,163.0,,'11111222,11111222,99999999' 
WAVCIS,ioos:station:WAVCIS:CSI03:3,2008-06-06T12:00:00Z,29.4412,-92.0613,10.0,9.91,162.0,,'11111222,11111222,99999999' 
WAVCIS,ioos:station:WAVCIS:CSI03:3,2008-06-06T13:00:00Z,29.4412,-92.0613,10.0,9.67,159.0,,'11111222,11111222,99999999' 
WAVCIS,ioos:station:WAVCIS:CSI03:3,2008-06-06T14:00:00Z,29.4412,-92.0613,10.0,9.34,157.0,,'11111222,11111222,99999999' 
WAVCIS,ioos:station:WAVCIS:CSI03:3,2008-06-06T15:00:00Z,29.4412,-92.0613,10.0,8.83,157.0,,'11111222,11111222,99999999' 
WAVCIS,ioos:station:WAVCIS:CSI03:3,2008-06-06T16:00:00Z,29.4412,-92.0613,10.0,8.25,163.0,,'11111222,11111222,99999999' 
WAVCIS,ioos:station:WAVCIS:CSI03:3,2008-06-06T17:00:00Z,29.4412,-92.0613,10.0,8.96,157.0,,'11111222,11111222,99999999' 
WAVCIS,ioos:station:WAVCIS:CSI03:3,2008-06-06T18:00:00Z,29.4412,-92.0613,10.0,9.29,151.0,,'11111222,11111222,99999999' 
WAVCIS,ioos:station:WAVCIS:CSI03:3,2008-06-06T19:00:00Z,29.4412,-92.0613,10.0,10.06,152.0,,'11111222,11111222,99999999' 
WAVCIS,ioos:station:WAVCIS:CSI03:3,2008-06-06T20:00:00Z,29.4412,-92.0613,10.0,9.22,151.0,,'11111222,11111222,99999999' 
WAVCIS,ioos:station:WAVCIS:CSI03:3,2008-06-06T21:00:00Z,29.4412,-92.0613,10.0,9.23,151.0,,'11111222,11111222,99999999' 
WAVCIS,ioos:station:WAVCIS:CSI03:3,2008-06-06T22:00:00Z,29.4412,-92.0613,10.0,9.26,152.0,,'11111222,11111222,99999999' 
WAVCIS,ioos:station:WAVCIS:CSI03:3,2008-06-06T23:00:00Z,29.4412,-92.0613,10.0,8.56,153.0,,'11111222,11111222,99999999' 
WAVCIS,ioos:station:WAVCIS:CSI03:3,2008-06-07T00:00:00Z,29.4412,-92.0613,10.0,8.63,148.0,,'11111222,11111222,99999999' 
WAVCIS,ioos:station:WAVCIS:CSI03:3,2008-06-07T01:00:00Z,29.4412,-92.0613,10.0,8.97,149.0,,'11111222,11111222,99999999' 
WAVCIS,ioos:station:WAVCIS:CSI03:3,2008-06-07T02:00:00Z,29.4412,-92.0613,10.0,8.08,149.0,,'11111222,11111222,99999999' 
WAVCIS,ioos:station:WAVCIS:CSI03:3,2008-06-07T03:00:00Z,29.4412,-92.0613,10.0,8.52,150.0,,'11111222,11111222,99999999' 
WAVCIS,ioos:station:WAVCIS:CSI03:3,2008-06-07T04:00:00Z,29.4412,-92.0613,10.0,7.91,151.0,,'11111222,11111222,99999999' 
WAVCIS,ioos:station:WAVCIS:CSI03:3,2008-06-07T05:00:00Z,29.4412,-92.0613,10.0,7.66,155.0,,'11111222,11111222,99999999' 
WAVCIS,ioos:station:WAVCIS:CSI03:3,2008-06-07T06:00:00Z,29.4412,-92.0613,10.0,7.18,150.0,,'11111222,11111222,99999999' 
WAVCIS,ioos:station:WAVCIS:CSI03:3,2008-06-07T07:00:00Z,29.4412,-92.0613,10.0,7.79,152.0,,'11111222,11111222,99999999' 
WAVCIS,ioos:station:WAVCIS:CSI03:3,2008-06-07T08:00:00Z,29.4412,-92.0613,10.0,8.37,148.0,,'11111222,11111222,99999999' 
WAVCIS,ioos:station:WAVCIS:CSI03:3,2008-06-07T09:00:00Z,29.4412,-92.0613,10.0,8.28,150.0,,'11111222,11111222,99999999' 
WAVCIS,ioos:station:WAVCIS:CSI03:3,2008-06-07T10:00:00Z,29.4412,-92.0613,10.0,9.71,159.0,,'11111222,11111222,99999999' 
WAVCIS,ioos:station:WAVCIS:CSI03:3,2008-06-07T11:00:00Z,29.4412,-92.0613,10.0,8.98,154.0,,'11111222,11111222,99999999' 
WAVCIS,ioos:station:WAVCIS:CSI03:3,2008-06-07T12:00:00Z,29.4412,-92.0613,10.0,8.09,153.0,,'11111222,11111222,99999999' 
WAVCIS,ioos:station:WAVCIS:CSI03:3,2008-06-07T13:00:00Z,29.4412,-92.0613,10.0,8.8,152.0,,'11111222,11111222,99999999' 
WAVCIS,ioos:station:WAVCIS:CSI03:3,2008-06-07T14:00:00Z,29.4412,-92.0613,10.0,9.03,149.0,,'11111222,11111222,99999999' 
WAVCIS,ioos:station:WAVCIS:CSI03:3,2008-06-07T15:00:00Z,29.4412,-92.0613,10.0,9.25,153.0,,'11111222,11111222,99999999' 
WAVCIS,ioos:station:WAVCIS:CSI03:3,2008-06-07T16:00:00Z,29.4412,-92.0613,10.0,9.05,155.0,,'11111222,11111222,99999999' 
WAVCIS,ioos:station:WAVCIS:CSI03:3,2008-06-07T17:00:00Z,29.4412,-92.0613,10.0,8.35,157.0,,'11111222,11111222,99999999' 
WAVCIS,ioos:station:WAVCIS:CSI03:3,2008-06-07T18:00:00Z,29.4412,-92.0613,10.0,7.62,150.0,,'11111222,11111222,99999999' 
WAVCIS,ioos:station:WAVCIS:CSI03:3,2008-06-07T19:00:00Z,29.4412,-92.0613,10.0,8.16,145.0,,'11111222,11111222,99999999' 
WAVCIS,ioos:station:WAVCIS:CSI03:3,2008-06-07T20:00:00Z,29.4412,-92.0613,10.0,7.79,148.0,,'11111222,11111222,99999999' 
WAVCIS,ioos:station:WAVCIS:CSI03:3,2008-06-07T21:00:00Z,29.4412,-92.0613,10.0,7.53,151.0,,'11111222,11111222,99999999' 
WAVCIS,ioos:station:WAVCIS:CSI03:3,2008-06-07T22:00:00Z,29.4412,-92.0613,10.0,7.66,160.0,,'11111222,11111222,99999999' 
WAVCIS,ioos:station:WAVCIS:CSI03:3,2008-06-07T23:00:00Z,29.4412,-92.0613,10.0,7.4,164.0,,'11111222,11111222,99999999' 
WAVCIS,ioos:station:WAVCIS:CSI03:3,2008-06-08T00:00:00Z,29.4412,-92.0613,10.0,6.733,166.0,,'11111222,11111222,99999999' 
WAVCIS,ioos:station:WAVCIS:CSI03:3,2008-06-08T01:00:00Z,29.4412,-92.0613,10.0,7.58,160.0,,'11111222,11111222,99999999' 
WAVCIS,ioos:station:WAVCIS:CSI03:3,2008-06-08T02:00:00Z,29.4412,-92.0613,10.0,7.44,158.0,,'11111222,11111222,99999999' 
WAVCIS,ioos:station:WAVCIS:CSI03:3,2008-06-08T03:00:00Z,29.4412,-92.0613,10.0,7.67,157.0,,'11111222,11111222,99999999' 
WAVCIS,ioos:station:WAVCIS:CSI03:3,2008-06-08T04:00:00Z,29.4412,-92.0613,10.0,8.63,156.0,,'11111222,11111222,99999999' 
WAVCIS,ioos:station:WAVCIS:CSI03:3,2008-06-08T05:00:00Z,29.4412,-92.0613,10.0,8.17,156.0,,'11111222,11111222,99999999' 
WAVCIS,ioos:station:WAVCIS:CSI03:3,2008-06-08T06:00:00Z,29.4412,-92.0613,10.0,8.65,155.0,,'11111222,11111222,99999999' 
WAVCIS,ioos:station:WAVCIS:CSI03:3,2008-06-08T07:00:00Z,29.4412,-92.0613,10.0,9.47,163.0,,'11111222,11111222,99999999' 
WAVCIS,ioos:station:WAVCIS:CSI03:3,2008-06-08T08:00:00Z,29.4412,-92.0613,10.0,9.51,165.0,,'11111222,11111222,99999999' 
WAVCIS,ioos:station:WAVCIS:CSI03:3,2008-06-08T09:00:00Z,29.4412,-92.0613,10.0,9.43,162.0,,'11111222,11111222,99999999' 
WAVCIS,ioos:station:WAVCIS:CSI03:3,2008-06-08T10:00:00Z,29.4412,-92.0613,10.0,8.83,167.0,,'11111222,11111222,99999999' 
WAVCIS,ioos:station:WAVCIS:CSI03:3,2008-06-08T11:00:00Z,29.4412,-92.0613,10.0,6.885,174.0,,'11111222,11111222,99999999' 
WAVCIS,ioos:station:WAVCIS:CSI03:3,2008-06-08T12:00:00Z,29.4412,-92.0613,10.0,6.722,166.0,,'11111222,11111222,99999999' 
WAVCIS,ioos:station:WAVCIS:CSI03:3,2008-06-08T13:00:00Z,29.4412,-92.0613,10.0,6.616,171.0,,'11111222,11111222,99999999' 
WAVCIS,ioos:station:WAVCIS:CSI03:3,2008-06-08T14:00:00Z,29.4412,-92.0613,10.0,5.694,173.0,,'11111222,11111222,99999999' 
WAVCIS,ioos:station:WAVCIS:CSI03:3,2008-06-08T15:00:00Z,29.4412,-92.0613,10.0,5.501,178.0,,'11111222,11111222,99999999' 
WAVCIS,ioos:station:WAVCIS:CSI03:3,2008-06-08T16:00:00Z,29.4412,-92.0613,10.0,4.99,171.0,,'11111222,11111222,99999999' 
WAVCIS,ioos:station:WAVCIS:CSI03:3,2008-06-08T17:00:00Z,29.4412,-92.0613,10.0,5.527,167.0,,'11111222,11111222,99999999' 
WAVCIS,ioos:station:WAVCIS:CSI03:3,2008-06-08T18:00:00Z,29.4412,-92.0613,10.0,5.584,171.0,,'11111222,11111222,99999999' 
WAVCIS,ioos:station:WAVCIS:CSI03:3,2008-06-08T19:00:00Z,29.4412,-92.0613,10.0,5.961,164.0,,'11111222,11111222,99999999' 
WAVCIS,ioos:station:WAVCIS:CSI03:3,2008-06-08T20:00:00Z,29.4412,-92.0613,10.0,6.437,159.0,,'11111222,11111222,99999999' 
WAVCIS,ioos:station:WAVCIS:CSI03:3,2008-06-08T21:00:00Z,29.4412,-92.0613,10.0,7.17,158.0,,'11111222,11111222,99999999' 
WAVCIS,ioos:station:WAVCIS:CSI03:3,2008-06-08T22:00:00Z,29.4412,-92.0613,10.0,6.715,159.0,,'11111222,11111222,99999999' 
WAVCIS,ioos:station:WAVCIS:CSI03:3,2008-06-08T23:00:00Z,29.4412,-92.0613,10.0,7.06,165.0,,'11111222,11111222,99999999' 
WAVCIS,ioos:station:WAVCIS:CSI03:3,2008-06-09T00:00:00Z,29.4412,-92.0613,10.0,6.31,165.0,,'11111222,11111222,99999999' 
WAVCIS,ioos:station:WAVCIS:CSI03:3,2008-06-09T01:00:00Z,29.4412,-92.0613,10.0,6.982,162.0,,'11111222,11111222,99999999' 
WAVCIS,ioos:station:WAVCIS:CSI03:3,2008-06-09T02:00:00Z,29.4412,-92.0613,10.0,7.09,168.0,,'11111222,11111222,99999999' 
WAVCIS,ioos:station:WAVCIS:CSI03:3,2008-06-09T03:00:00Z,29.4412,-92.0613,10.0,7.52,162.0,,'11111222,11111222,99999999' 
WAVCIS,ioos:station:WAVCIS:CSI03:3,2008-06-09T04:00:00Z,29.4412,-92.0613,10.0,8.1,157.0,,'11111222,11111222,99999999' 
WAVCIS,ioos:station:WAVCIS:CSI03:3,2008-06-09T05:00:00Z,29.4412,-92.0613,10.0,8.49,162.0,,'11111222,11111222,99999999' 